Northeast Philadelphia, PA

4:04 PM EST on December 09, 2019 (GMT -0500)
Northeast Philadelphia

Weather History for KPNE - August, 2019

Change the Weather History Date:

Thursday, August 22, 2019

  Actual Average Record
Temperature  
Mean Temperature 84 °F -  
Max Temperature 93 °F 82 °F 95 °F (2003)
Min Temperature 75 °F 65 °F 55 °F (2004)
Cooling Degree Days 19    
Growing Degree Days 34 (Base 50)    
Moisture  
Dew Point 70 °F    
Average Humidity 66    
Maximum Humidity 88    
Minimum Humidity 44    
Precipitation  
Precipitation 0.09 in - - ()
Sea Level Pressure  
Sea Level Pressure 29.90 in    
Wind  
Wind Speed 5 mph ()    
Max Wind Speed 12 mph    
Max Gust Speed -    
Visibility 9.6 miles    
Events Rain    
Averages and records for this station are not official NWS values.
T = Trace of Precipitation, MM = Missing Value Source: Averaged Metar Reports

Daily Weather History Graph

Daily Weather History Graph

Search for Another Location

Airport or City:

Astronomy

Aug. 22, 2019 Rise Set
Actual Time 6:17 AM EDT 7:47 PM EDT
Civil Twilight 5:49 AM EDT 8:15 PM EDT
Nautical Twilight 5:15 AM EDT 8:49 PM EDT
Astronomical Twilight 4:38 AM EDT 9:26 PM EDT
Moon 11:35 PM EDT (8/22) 12:51 PM EDT (8/22)
Length of Visible Light 14h 26m
Length of Day
13h 29m
Waning Gibbous, 60% of the Moon is Illuminated
Aug 22
Waning Gibbous
Aug 23
Last Quarter
Aug 30
New
Sep 5
First Quarter
Sep 14
Full

Hourly Weather History & Observations

Time (EDT) Temp. Heat Index Dew Point Humidity Pressure Visibility Wind Dir Wind Speed Gust Speed Precip Events Conditions
12:54 AM 75.0 °F - 70.0 °F 84% 29.89 in 10.0 mi Calm Calm - N/A   Clear
1:54 AM 77.0 °F - 73.0 °F 88% 29.87 in 7.0 mi West 3.5 mph - N/A   Scattered Clouds
2:54 AM 77.0 °F - 73.0 °F 88% 29.86 in 8.0 mi WSW 6.9 mph - N/A   Clear
3:54 AM 77.0 °F - 72.0 °F 84% 29.86 in 10.0 mi West 6.9 mph - N/A   Clear
4:54 AM 75.9 °F - 72.0 °F 87% 29.86 in 10.0 mi WSW 3.5 mph - N/A   Clear
5:54 AM 75.0 °F - 71.1 °F 87% 29.88 in 10.0 mi Calm Calm - N/A   Clear
6:54 AM 75.9 °F - 70.0 °F 82% 29.90 in 10.0 mi West 6.9 mph - N/A   Clear
7:54 AM 78.1 °F - 70.0 °F 76% 29.92 in 10.0 mi West 8.1 mph - N/A   Clear
8:54 AM 79.0 °F - 70.0 °F 74% 29.93 in 10.0 mi WNW 4.6 mph - N/A   Clear
9:54 AM 82.0 °F 86.3 °F 71.1 °F 69% 29.94 in 10.0 mi WNW 9.2 mph - N/A   Clear
10:54 AM 86.0 °F 90.7 °F 70.0 °F 59% 29.93 in 10.0 mi West 6.9 mph - N/A   Clear
11:54 AM 89.1 °F 93.7 °F 69.1 °F 52% 29.92 in 10.0 mi Variable 3.5 mph - N/A   Clear
12:54 PM 91.0 °F 95.2 °F 68.0 °F 47% 29.91 in 10.0 mi WNW 10.4 mph - N/A   Partly Cloudy
1:54 PM 91.9 °F 96.9 °F 69.1 °F 47% 29.91 in 10.0 mi West 6.9 mph - N/A   Partly Cloudy
2:54 PM 91.9 °F 95.4 °F 66.9 °F 44% 29.90 in 10.0 mi WNW 8.1 mph - N/A   Clear
3:54 PM 93.0 °F 97.4 °F 68.0 °F 44% 29.88 in 10.0 mi West 11.5 mph - N/A   Clear
4:54 PM 91.0 °F 94.3 °F 66.9 °F 45% 29.85 in 10.0 mi Variable 5.8 mph - N/A   Clear
5:54 PM 91.9 °F 95.4 °F 66.9 °F 44% 29.86 in 10.0 mi SSW 4.6 mph - N/A   Scattered Clouds
6:54 PM 89.1 °F 91.3 °F 66.0 °F 46% 29.86 in 10.0 mi West 8.1 mph - N/A   Clear
7:54 PM 88.0 °F 90.7 °F 66.9 °F 49% 29.86 in 10.0 mi SW 5.8 mph - N/A   Scattered Clouds
8:54 PM 88.0 °F 90.7 °F 66.9 °F 49% 29.90 in 10.0 mi SSW 5.8 mph - N/A   Mostly Cloudy
9:54 PM 80.1 °F 83.6 °F 71.1 °F 74% 29.92 in 10.0 mi North 11.5 mph - N/A   Scattered Clouds
10:54 PM 78.1 °F - 72.0 °F 81% 29.95 in 10.0 mi Calm Calm - 0.01 in Rain Light Rain
11:54 PM 77.0 °F - 73.0 °F 88% 29.94 in 6.0 mi Calm Calm - 0.08 in Rain Light Rain